This is the latest recevied weather packets stored in our database for station/object VE2JJ-13. If no packets are shown the sender has not sent any weather packets the latest 10 day(s).
| Time | Temp. | Humidity | Pressure | Rain* | Wind** | Luminosity | Snow |
|---|---|---|---|---|---|---|---|
| 1777484350 | 19.44° C | 53% | 1003.4 hPa | 0 mm | - | - | - |
| 1777484047 | 19.44° C | 53% | 1003.4 hPa | 0 mm | - | - | - |
| 1777483718 | 20° C | 51% | 1003.7 hPa | 0 mm | - | - | - |
| 1777483418 | 20° C | 53% | 1003.8 hPa | 0 mm | - | - | - |
| 1777483120 | 19.44° C | 53% | 1003.8 hPa | 0 mm | - | - | - |
| 1777482817 | 18.89° C | 54% | 1003.9 hPa | 0 mm | - | - | - |
| 1777482518 | 18.89° C | 55% | 1003.9 hPa | 0 mm | - | - | - |
| 1777482218 | 19.44° C | 54% | 1003.8 hPa | 0 mm | - | - | - |
| 1777481889 | 19.44° C | 53% | 1003.8 hPa | 0 mm | - | - | - |
| 1777481561 | 20° C | 54% | 1004 hPa | 0 mm | - | - | - |
| 1777481258 | 18.89° C | 54% | 1004 hPa | 0 mm | - | - | - |
| 1777480962 | 18.33° C | 55% | 1004 hPa | 0 mm | - | - | - |
| 1777480659 | 18.89° C | 56% | 1004.3 hPa | 0 mm | - | - | - |
| 1777480328 | 18.33° C | 55% | 1004.3 hPa | 0 mm | - | - | - |
| 1777480027 | 17.78° C | 56% | 1004.4 hPa | 0 mm | - | - | - |
| 1777479701 | 17.78° C | 56% | 1004.4 hPa | 0 mm | - | - | - |
| 1777479367 | 17.78° C | 57% | 1004.6 hPa | 0 mm | - | - | - |
| 1777479067 | 17.22° C | 55% | 1004.6 hPa | 0 mm | - | - | - |
| 1777478768 | 17.78° C | 54% | 1004.6 hPa | 0 mm | - | - | - |
| 1777478439 | 17.78° C | 52% | 1004.7 hPa | 0 mm | - | - | - |
| 1777477844 | 17.78° C | 53% | 1004.8 hPa | 0 mm | - | - | - |
| 1777477537 | 17.78° C | 51% | 1004.8 hPa | 0 mm | - | - | - |
| 1777477238 | 17.78° C | 51% | 1004.8 hPa | 0 mm | - | - | - |
| 1777476607 | 17.22° C | 52% | 1004.8 hPa | 0 mm | - | - | - |
| 1777476309 | 17.22° C | 52% | 1005 hPa | 0 mm | - | - | - |
* Rain latest hour (hover to see other rain measurements)
** Current wind speed in m/s (hover to see current wind gust speed)